Дата Пункты Температура Давл., мм. Влажн., % Ветер Погодные явления
Воздуха Воды Направл. Скорость
09.01.19 11:00 Одесса -2.0 3.0 754 73 Пд 1 11 ГОДИН
09.01.19 08:00 Одесса -3.0 3.0 754 84 Пд-С 3 08 ГОДИН
09.01.19 05:00 Одесса -9.0 3.0 754 89 Пд 1 05 ГОДИН
09.01.19 02:00 Одесса -10.0 0.0 755 89 Пн 0 02 ГОДИНИ
08.01.19 11:00 Одесса -10.0 3.0 756 91 З 1 23 ГОДИНИ
08.01.19 08:00 Одесса -8.0 3.0 757 91 Пн 0 20 ГОДИН
08.01.19 05:00 Одесса -7.0 3.0 757 90 Пн 0 17 ГОДИН
08.01.19 02:00 Одесса -7.0 3.0 758 89 Пн-З 1 14 ГОДИН
08.01.19 11:00 Одесса -7.0 3.0 759 92 Пн 3 11 ГОДИН
08.01.19 08:00 Одесса -8.0 3.0 760 95 Пн-З 3 08 ГОДИН
08.01.19 05:00 Одесса -7.0 3.0 761 93 Пн 3 05 ГОДИН
08.01.19 02:00 Одесса -7.0 3.0 762 92 Пн 4 02 ГОДИНИ
07.01.19 11:00 Одесса -6.0 3.0 762 94 Пн 3 23 ГОДИНИ
07.01.19 08:00 Одесса -5.0 3.0 762 92 Пн 4 20 ГОДИН
07.01.19 05:00 Одесса -4.0 4.0 762 82 Пн 5 17 ГОДИН
07.01.19 02:00 Одесса -3.0 4.0 761 84 Пн 7 14 ГОДИН
07.01.19 11:00 Одесса -3.0 4.0 760 86 Пн 6 11 ГОДИН
07.01.19 08:00 Одесса -3.0 4.0 759 91 Пн 3 08 ГОДИН
07.01.19 05:00 Одесса -6.0 4.0 758 89 Пн 4 05 ГОДИН
07.01.19 02:00 Одесса -6.0 4.0 758 88 Пн 4 02 ГОДИНИ
Количество строк
1 2 3 4 5 6 7 8 9 10
Page 4 of 448